Location: Unspecified
(51.0950°N, 12.9690°E)
Time: 05:08:06
(UTC+00:00)

QB50P2 - Visible Passes

Search period start: 16 April 2024 00:00
Search period end: 26 April 2024 00:00
Orbit: 568 x 582 km, 98.0° (Epoch: 15 April)

Date Brightness Start Highest point End Pass type
(mag) Time Alt. Az. Time Alt. Az. Time Alt. Az.
16 Apr ? 00:26:08 10° ENE 00:27:37 12° E 00:28:52 10° ESE visible
16 Apr ? 01:59:17 10° NNE 02:03:25 86° WNW 02:05:07 35° SSW visible
16 Apr ? 03:36:10 10° NNW 03:37:59 13° NW 03:39:47 10° W visible
17 Apr ? 00:29:21 10° ENE 00:31:11 13° E 00:32:32 11° ESE visible
17 Apr ? 02:02:48 10° NNE 02:06:56 80° WNW 02:08:47 32° SSW visible
18 Apr ? 00:32:37 10° ENE 00:34:43 14° E 00:36:11 12° ESE visible
18 Apr ? 02:06:18 10° N 02:10:25 74° WNW 02:12:25 30° SSW visible
19 Apr ? 00:35:54 10° NE 00:38:14 15° E 00:39:48 12° ESE visible
19 Apr ? 02:09:47 10° N 02:13:53 68° WNW 02:16:03 27° SSW visible
20 Apr ? 00:39:11 10° NE 00:41:43 16° E 00:43:24 13° ESE visible
20 Apr ? 02:13:15 10° N 02:17:20 63° WNW 02:19:39 25° SW visible
21 Apr ? 00:42:29 10° NE 00:45:12 17° E 00:46:59 13° ESE visible
21 Apr ? 02:16:42 10° N 02:20:46 59° WNW 02:23:13 22° SW visible
22 Apr ? 00:45:47 10° NE 00:48:39 18° E 00:50:33 14° ESE visible
22 Apr ? 02:20:08 10° N 02:24:10 55° WNW 02:26:47 20° SW visible
23 Apr ? 00:49:04 10° NE 00:52:05 19° E 00:54:05 14° SE visible
23 Apr ? 02:23:33 10° N 02:27:34 51° WNW 02:30:20 19° SW visible
24 Apr ? 00:52:21 10° NE 00:55:29 21° E 00:57:37 14° SE visible
24 Apr ? 02:26:57 10° N 02:30:55 47° WNW 02:33:50 17° SW visible
25 Apr ? 00:55:38 10° NE 00:58:52 22° E 01:01:06 15° SE visible
25 Apr ? 02:30:20 10° N 02:34:16 44° WNW 02:37:20 15° SW visible
